Butler, GA

9:30 AM EST on December 07, 2019 (GMT -0500)
Butler

Weather History for K6A1 - October, 2019

Change the Weather History Date:

Wednesday, October 16, 2019

  Actual Average (WUND) Record (WUND)
Temperature  
Mean Temperature 67 °F -  
Max Temperature 79 °F - - (-1)
Min Temperature 55 °F - - (-1)
Cooling Degree Days 2    
Growing Degree Days 17 (Base 50)    
Moisture  
Dew Point 61 °F    
Average Humidity 77    
Maximum Humidity 99    
Minimum Humidity 51    
Precipitation  
Precipitation 0.00 in - - ()
Sea Level Pressure  
Sea Level Pressure 29.87 in    
Wind  
Wind Speed 8 mph ()    
Max Wind Speed 15 mph    
Max Gust Speed 22 mph    
Visibility 9.6 miles    
Events Rain    
Averages and records for this station are not official NWS values.
T = Trace of Precipitation, MM = Missing Value Source: Averaged Metar Reports

Daily Weather History Graph

Daily Weather History Graph

Search for Another Location

Airport or City:

Astronomy

Oct. 16, 2019 Rise Set
Actual Time 7:41 AM EDT 7:03 PM EDT
Civil Twilight 7:16 AM EDT 7:27 PM EDT
Nautical Twilight 6:48 AM EDT 7:56 PM EDT
Astronomical Twilight 6:19 AM EDT 8:24 PM EDT
Moon 9:03 PM EDT (10/16) 10:04 AM EDT (10/16)
Length of Visible Light 12h 11m
Length of Day
11h 21m
Waning Gibbous, 93% of the Moon is Illuminated
Oct 16
Waning Gibbous
Oct 21
Last Quarter
Oct 27
New
Nov 4
First Quarter
Nov 12
Full

Hourly Weather History & Observations

Time (EDT) Temp. Dew Point Humidity Pressure Visibility Wind Dir Wind Speed Gust Speed Precip Events Conditions
12:15 AM 66.7 °F 66.2 °F 98% 29.93 in 10.0 mi South 6.9 mph - N/A Rain Rain
12:35 AM 66.7 °F 66.2 °F 98% 29.92 in 10.0 mi South 5.8 mph - N/A   Light Drizzle
12:55 AM 66.7 °F 66.2 °F 98% 29.92 in 7.0 mi South 4.6 mph - N/A Rain Rain
1:15 AM 67.1 °F 66.4 °F 98% 29.91 in 10.0 mi South 9.2 mph - N/A Rain Light Rain
1:35 AM 67.1 °F 66.4 °F 98% 29.90 in 10.0 mi South 6.9 mph - N/A Rain Light Rain
1:55 AM 67.1 °F 66.6 °F 98% 29.90 in 10.0 mi SSE 5.8 mph - N/A Rain Light Rain
2:15 AM 67.1 °F 66.6 °F 98% 29.88 in 10.0 mi SSE 6.9 mph - N/A Rain Rain
2:35 AM 67.1 °F 66.6 °F 98% 29.87 in 10.0 mi SSE 4.6 mph - N/A Rain Light Rain
2:55 AM 67.1 °F 66.6 °F 98% 29.87 in 10.0 mi SSE 5.8 mph - N/A Rain Light Rain
3:15 AM 67.1 °F 66.6 °F 98% 29.87 in 10.0 mi SSW 5.8 mph - N/A Rain Light Rain
3:35 AM 67.3 °F 66.7 °F 98% 29.87 in 10.0 mi South 4.6 mph - N/A Rain Light Rain
3:55 AM 67.1 °F 66.6 °F 98% 29.86 in 7.0 mi South 5.8 mph - N/A Rain Light Rain
4:15 AM 67.1 °F 66.6 °F 98% 29.83 in 7.0 mi South 8.1 mph - N/A Rain Light Rain
4:35 AM 67.1 °F 66.6 °F 98% 29.81 in 7.0 mi South 9.2 mph - N/A   Light Drizzle
4:55 AM 67.1 °F 66.6 °F 98% 29.79 in 7.0 mi SSW 10.4 mph 16.1 mph N/A   Unknown
5:15 AM 67.6 °F 67.1 °F 98% 29.80 in 10.0 mi SSW 5.8 mph - N/A   Unknown
5:35 AM 68.0 °F 67.3 °F 98% 29.81 in 7.0 mi SW 8.1 mph - N/A   Unknown
5:55 AM 68.2 °F 68.0 °F 99% 29.82 in 10.0 mi WSW 6.9 mph - N/A   Unknown
6:15 AM 68.9 °F 68.2 °F 98% 29.82 in 10.0 mi WSW 8.1 mph - N/A   Unknown
6:35 AM 69.1 °F 68.4 °F 98% 29.81 in 10.0 mi WSW 11.5 mph - N/A   Unknown
6:55 AM 69.8 °F 68.9 °F 97% 29.82 in 10.0 mi WSW 12.7 mph - N/A   Unknown
7:15 AM 69.8 °F 68.9 °F 97% 29.82 in 5.0 mi West 13.8 mph 20.7 mph N/A   Mist
7:55 AM 69.8 °F 68.4 °F 95% 29.82 in 7.0 mi West 10.4 mph 19.6 mph N/A   Unknown
8:15 AM 69.8 °F 68.2 °F 95% 29.82 in 10.0 mi West 8.1 mph - N/A   Unknown
8:35 AM 69.8 °F 67.3 °F 92% 29.83 in 10.0 mi West 6.9 mph - N/A   Unknown
8:55 AM 70.5 °F 67.5 °F 90% 29.83 in 10.0 mi West 10.4 mph - N/A   Unknown
9:15 AM 70.7 °F 67.1 °F 88% 29.84 in 10.0 mi West 9.2 mph 17.3 mph N/A   Unknown
9:35 AM 71.1 °F 66.7 °F 86% 29.84 in 10.0 mi West 12.7 mph 17.3 mph N/A   Unknown
9:55 AM 71.2 °F 66.4 °F 85% 29.85 in 10.0 mi West 9.2 mph 19.6 mph N/A   Unknown
10:15 AM 71.8 °F 66.7 °F 84% 29.85 in 10.0 mi West 10.4 mph - N/A   Unknown
10:35 AM 71.6 °F 67.1 °F 86% 29.86 in 10.0 mi West 8.1 mph 17.3 mph N/A   Unknown
10:55 AM 72.1 °F 67.1 °F 84% 29.85 in 10.0 mi West 11.5 mph - N/A   Unknown
11:15 AM 74.5 °F 66.7 °F 77% 29.85 in 10.0 mi West 15.0 mph 21.9 mph N/A   Unknown
11:35 AM 74.7 °F 66.4 °F 75% 29.86 in 10.0 mi WNW 11.5 mph - N/A   Unknown
11:55 AM 75.7 °F 64.8 °F 69% 29.87 in 10.0 mi NW 12.7 mph 18.4 mph N/A   Unknown
12:15 PM 74.7 °F 63.7 °F 69% 29.87 in 10.0 mi NW 11.5 mph 18.4 mph N/A   Unknown
12:35 PM 76.1 °F 63.3 °F 64% 29.87 in 10.0 mi NW 10.4 mph 19.6 mph N/A   Unknown
1:15 PM 76.8 °F 62.1 °F 60% 29.87 in 10.0 mi NW 10.4 mph 21.9 mph N/A   Unknown
1:35 PM 79.0 °F 62.6 °F 57% 29.86 in 10.0 mi NW 9.2 mph - N/A   Unknown
1:55 PM 77.0 °F 61.9 °F 59% 29.86 in 10.0 mi NNW 11.5 mph - N/A   Unknown
2:15 PM 77.0 °F 61.7 °F 59% 29.86 in 10.0 mi WNW 10.4 mph - N/A   Unknown
2:35 PM 76.6 °F 62.1 °F 61% 29.86 in 10.0 mi NW 9.2 mph 18.4 mph N/A   Unknown
2:55 PM 77.5 °F 61.7 °F 58% 29.86 in 10.0 mi WNW 12.7 mph 17.3 mph N/A   Unknown
3:15 PM 76.5 °F 60.8 °F 58% 29.86 in 10.0 mi NW 11.5 mph 18.4 mph N/A   Unknown
3:35 PM 79.0 °F 61.0 °F 54% 29.86 in 10.0 mi WNW 13.8 mph 20.7 mph N/A   Unknown
3:55 PM 78.3 °F 60.6 °F 54% 29.85 in 10.0 mi NNW 11.5 mph 17.3 mph N/A   Unknown
4:15 PM 77.4 °F 60.1 °F 55% 29.85 in 10.0 mi NW 11.5 mph 19.6 mph N/A   Unknown
4:35 PM 76.1 °F 59.7 °F 57% 29.85 in 10.0 mi WNW 10.4 mph - N/A   Unknown
4:55 PM 75.9 °F 59.9 °F 57% 29.85 in 10.0 mi NW 12.7 mph 16.1 mph N/A   Unknown
5:15 PM 75.7 °F 59.5 °F 57% 29.85 in 10.0 mi NW 9.2 mph 17.3 mph N/A   Unknown
5:35 PM 75.2 °F 55.8 °F 51% 29.86 in 10.0 mi NNW 9.2 mph 19.6 mph N/A   Unknown
5:55 PM 73.9 °F 55.9 °F 53% 29.86 in 10.0 mi NW 10.4 mph - N/A   Unknown
6:15 PM 73.0 °F 58.1 °F 59% 29.86 in 10.0 mi NW 8.1 mph - N/A   Unknown
6:35 PM 71.1 °F 56.1 °F 59% 29.87 in 10.0 mi NNW 11.5 mph 17.3 mph N/A   Unknown
6:55 PM 69.8 °F 52.9 °F 55% 29.88 in 10.0 mi NNW 9.2 mph - N/A   Unknown
7:15 PM 68.0 °F 53.8 °F 60% 29.88 in 10.0 mi NW 8.1 mph - N/A   Unknown
7:35 PM 67.1 °F 54.5 °F 64% 29.90 in 10.0 mi NNW 9.2 mph - N/A   Unknown
7:55 PM 65.3 °F 52.0 °F 62% 29.91 in 10.0 mi NNW 8.1 mph 17.3 mph N/A   Unknown
8:15 PM 64.0 °F 49.8 °F 60% 29.91 in 10.0 mi NNW 11.5 mph 16.1 mph N/A   Unknown
8:35 PM 62.6 °F 49.1 °F 61% 29.92 in 10.0 mi NNW 6.9 mph - N/A   Unknown
8:55 PM 61.9 °F 48.6 °F 62% 29.93 in 10.0 mi NW 5.8 mph - N/A   Unknown
9:15 PM 61.2 °F 49.1 °F 65% 29.93 in 10.0 mi NW 5.8 mph - N/A   Unknown
9:35 PM 60.8 °F 49.5 °F 66% 29.94 in 10.0 mi NW 5.8 mph - N/A   Unknown
9:55 PM 60.8 °F 49.6 °F 67% 29.95 in 10.0 mi NW 6.9 mph - N/A   Unknown
10:15 PM 59.9 °F 49.3 °F 68% 29.95 in 10.0 mi NNW 5.8 mph - N/A   Unknown
10:35 PM 59.2 °F 49.1 °F 69% 29.96 in 10.0 mi WNW 5.8 mph - N/A   Unknown
10:55 PM 58.3 °F 48.4 °F 70% 29.97 in 10.0 mi NW 5.8 mph - N/A   Unknown
11:15 PM 57.4 °F 47.8 °F 70% 29.97 in 10.0 mi West 4.6 mph - N/A   Unknown
11:35 PM 55.8 °F 48.4 °F 76% 29.97 in 10.0 mi West 4.6 mph - N/A   Unknown
11:55 PM 55.0 °F 47.8 °F 77% 29.98 in 10.0 mi West 4.6 mph - N/A   Unknown